Location: Newark
(46.9000°N, 28.3500°E)
Time: 07:03:11
(UTC+00:00)

S-56A Canister/Altair - All Passes

Search period start: 26 August 2019 00:00
Search period end: 05 September 2019 00:00
Orbit: 633 x 2499 km, 38.9° (Epoch: 25 August)

Date Brightness Start Highest point End Pass type
(mag) Time Alt. Az. Time Alt. Az. Time Alt. Az.
26 Aug - 18:02:13 10° SW 18:06:29 23° SSE 18:10:08 10° ESE visible
26 Aug - 20:05:21 10° WSW 20:09:27 31° S 20:13:24 10° ESE visible
26 Aug - 22:09:09 10° WSW 22:12:20 19° SSW 22:15:47 10° SSE night (unlit)
27 Aug - 17:29:28 10° SW 17:33:58 23° SSE 17:37:42 10° ESE visible
27 Aug - 19:32:40 10° WSW 19:36:59 31° S 19:40:55 10° ESE visible
27 Aug - 21:36:33 10° WSW 21:39:51 20° SSW 21:43:19 10° SSE night (unlit)
28 Aug - 16:56:41 10° SSW 17:01:25 22° SSE 17:05:16 10° ESE daylight
28 Aug - 18:59:55 10° WSW 19:04:31 32° S 19:08:30 10° ESE visible
28 Aug - 21:03:53 10° WSW 21:07:23 22° SSW 21:10:55 10° SE visible
29 Aug - 16:23:49 10° SSW 16:28:51 22° SSE 16:32:51 10° ESE daylight
29 Aug - 18:27:06 10° WSW 18:32:02 33° S 18:36:07 10° ESE visible
29 Aug - 20:31:11 10° WSW 20:34:56 24° SSW 20:38:33 10° SE visible
30 Aug - 15:50:56 10° SSW 15:56:15 21° SSE 16:00:26 10° ESE daylight
30 Aug - 17:54:11 10° WSW 17:59:32 33° S 18:03:46 10° ESE visible
30 Aug - 19:58:25 10° WSW 20:02:29 26° SSW 20:06:12 10° SE visible
31 Aug - 15:18:00 10° SSW 15:23:37 21° SSE 15:27:59 10° ESE daylight
31 Aug - 17:21:12 10° WSW 17:27:00 34° S 17:31:25 10° ESE visible
31 Aug - 19:25:34 10° WSW 19:30:02 29° SSW 19:33:54 10° SE visible
31 Aug - 21:31:33 10° SW 21:32:39 11° SSW 21:33:45 10° SSW night (unlit)
01 Sep - 14:45:02 10° SSW 14:50:56 20° SSE 14:55:31 10° ESE daylight
01 Sep - 16:48:08 10° SW 16:54:25 34° S 16:59:06 10° ESE daylight
01 Sep - 18:52:39 10° WSW 18:57:33 31° SSW 19:01:37 10° SE visible
01 Sep - 20:58:08 10° WSW 21:00:12 13° SSW 21:02:12 10° S visible
02 Sep - 14:12:03 10° SSW 14:18:12 20° SSE 14:23:00 10° ESE daylight
02 Sep - 16:15:00 10° SW 16:21:50 35° S 16:26:46 10° ESE daylight
02 Sep - 18:19:39 10° WSW 18:25:04 34° S 18:29:20 10° SE visible
02 Sep - 20:24:57 10° WSW 20:27:44 15° SSW 20:30:22 10° S visible
03 Sep - 13:39:06 10° SSW 13:45:26 19° SSE 13:50:26 10° ESE daylight
03 Sep - 15:41:48 10° SW 15:49:11 35° S 15:54:26 10° ESE daylight
03 Sep - 17:46:34 10° WSW 17:52:33 37° S 17:57:04 10° ESE visible
03 Sep - 19:51:50 10° WSW 19:55:18 18° SSW 19:58:24 10° SSE visible
04 Sep - 13:06:09 10° S 13:12:37 19° SSE 13:17:48 10° ESE daylight
04 Sep - 15:08:33 10° SW 15:16:29 35° SSE 15:22:05 10° ESE daylight
04 Sep - 17:13:24 10° WSW 17:20:00 40° S 17:24:48 10° ESE visible
04 Sep - 19:18:43 10° WSW 19:22:51 21° SSW 19:26:23 10° SSE visible
